KE7YUP Weather Reports


Display with metric or nautical units.
time (UTC)temp
F
wind
direction
speed
MPH
gust
MPH
rain 1hr
in
rain 24hr
in
rain mn
in
humidity
%
barometer
mb
20210805205018 91 137 10.0 14.0 0.00 0.00 0.00 22 1020.0
20210805204017 90 111 10.0 12.0 0.00 0.00 0.00 22 1020.0
20210805203017 91 118 10.0 14.0 0.00 0.00 0.00 21 1020.5
20210805202017 91 149 8.0 12.0 0.00 0.00 0.00 22 1020.7
20210805201017 91 120 8.0 12.0 0.00 0.00 0.00 22 1020.8
20210805200017 90 119 6.0 11.0 0.00 0.00 0.00 22 1021.0
20210805195016 90 134 8.0 12.0 0.00 0.00 0.00 22 1021.2
20210805194016 89 107 9.0 11.0 0.00 0.00 0.00 22 1021.3
20210805193016 88 129 5.0 10.0 0.00 0.00 0.00 23 1021.1
20210805192017 87 142 6.0 11.0 0.00 0.00 0.00 24 1021.4
20210805191016 87 100 7.0 12.0 0.00 0.00 0.00 25 1021.6
20210805190016 87 119 9.0 15.0 0.00 0.00 0.00 23 1021.5
20210805185016 87 110 9.0 13.0 0.00 0.00 0.00 23 1021.7
20210805184016 86 141 5.0 12.0 0.00 0.00 0.00 25 1021.8
20210805183016 87 134 7.0 11.0 0.00 0.00 0.00 24 1022.0
20210805182016 86 127 5.0 16.0 0.00 0.00 0.00 27 1022.2
20210805181016 85 121 6.0 9.0 0.00 0.00 0.00 27 1022.1
20210805180016 85 123 4.0 7.0 0.00 0.00 0.00 29 1022.3
20210805175016 84 129 5.0 10.0 0.00 0.00 0.00 30 1022.4
20210805174016 83 177 3.0 7.0 0.00 0.00 0.00 32 1022.6
20210805173016 82 153 5.0 8.0 0.00 0.00 0.00 33 1022.7
20210805172016 81 94 5.0 7.0 0.00 0.00 0.00 36 1022.7
20210805171016 81 97 4.0 6.0 0.00 0.00 0.00 35 1022.7
20210805170017 82 129 3.0 8.0 0.00 0.00 0.00 33 1022.6
20210805165016 82 169 3.0 8.0 0.00 0.00 0.00 35 1022.8
20210805164017 82 163 5.0 7.0 0.00 0.00 0.00 36 1022.9
20210805163017 80 122 2.0 5.0 0.00 0.00 0.00 38 1023.1
20210805162016 79 149 1.0 3.0 0.00 0.00 0.00 37 1023.3
20210805161017 79 122 6.0 10.0 0.00 0.00 0.00 37 1023.3
20210805160016 77 156 2.0 4.0 0.00 0.00 0.00 38 1023.3
20210805155017 77 77 6.0 8.0 0.00 0.00 0.00 41 1023.4
20210805154016 77 119 3.0 6.0 0.00 0.00 0.00 40 1023.4
20210805153016 77 116 1.0 3.0 0.00 0.00 0.00 38 1023.7
20210805152016 76 85 3.0 4.0 0.00 0.00 0.00 40 1023.5
20210805151016 75 126 1.0 2.0 0.00 0.00 0.00 42 1023.6
20210805150016 75 119 2.0 5.0 0.00 0.00 0.00 42 1023.6
20210805145016 74 123 2.0 7.0 0.00 0.00 0.00 42 1023.6
20210805144016 74 114 4.0 6.0 0.00 0.00 0.00 41 1023.6
20210805143016 73 120 4.0 7.0 0.00 0.00 0.00 41 1023.5
20210805142017 74 140 2.0 3.0 0.00 0.00 0.00 42 1023.9
20210805141016 74 151 2.0 4.0 0.00 0.00 0.00 41 1023.9
20210805140016 73 155 0.0 2.0 0.00 0.00 0.00 39 1024.0
20210805135016 73 105 1.0 2.0 0.00 0.00 0.00 39 1024.0
20210805134016 72 109 2.0 4.0 0.00 0.00 0.00 40 1024.0
20210805133016 71 56 3.0 4.0 0.00 0.00 0.00 42 1023.5
20210805132015 69 25 2.0 3.0 0.00 0.00 0.00 46 1023.3
20210805131017 65 263 3.0 3.0 0.00 0.00 0.00 51 1022.9
20210805130016 65 0.0 1.0 0.00 0.00 0.00 50 1022.7
20210805125017 65 257 6.0 9.0 0.00 0.00 0.00 47 1022.6
20210805124015 71 32 0.0 3.0 0.00 0.00 0.00 43 1023.5
20210805123015 71 40 2.0 3.0 0.00 0.00 0.00 43 1023.4
20210805122015 71 90 4.0 6.0 0.00 0.00 0.00 44 1023.3
20210805121016 71 74 2.0 4.0 0.00 0.00 0.00 44 1023.3
20210805120017 71 89 2.0 4.0 0.00 0.00 0.00 45 1023.2
20210805115015 72 60 3.0 4.0 0.00 0.00 0.00 44 1023.6
20210805114016 72 80 3.0 5.0 0.00 0.00 0.00 44 1023.3
20210805113015 72 55 4.0 5.0 0.00 0.00 0.00 44 1023.4
20210805112018 71 55 4.0 6.0 0.00 0.00 0.00 45 1023.1
20210805111017 71 62 3.0 4.0 0.00 0.00 0.00 45 1023.1
20210805110017 71 73 4.0 5.0 0.00 0.00 0.00 43 1023.2
20210805105018 72 78 4.0 5.0 0.00 0.00 0.00 41 1023.4
20210805104017 73 75 5.0 7.0 0.00 0.00 0.00 37 1023.3
20210805103018 73 83 3.0 5.0 0.00 0.00 0.00 36 1023.3
20210805102017 74 78 3.0 4.0 0.00 0.00 0.00 35 1023.2
20210805101015 75 67 2.0 4.0 0.00 0.00 0.00 34 1023.5
20210805100018 74 65 4.0 4.0 0.00 0.00 0.00 35 1023.3
20210805095018 73 54 3.0 4.0 0.00 0.00 0.00 38 1023.3
20210805094017 73 355 4.0 5.0 0.00 0.00 0.00 38 1023.0
20210805093017 71 355 5.0 6.0 0.00 0.00 0.00 40 1022.6
20210805092018 71 355 5.0 5.0 0.00 0.00 0.00 41 1022.7
20210805091018 71 344 3.0 4.0 0.00 0.00 0.00 40 1022.6
20210805090018 71 346 3.0 4.0 0.00 0.00 0.00 40 1022.7
20210805085017 71 0 2.0 2.0 0.00 0.00 0.00 40 1022.4
20210805084017 71 355 1.0 2.0 0.00 0.00 0.00 39 1022.4
20210805083017 72 355 2.0 3.0 0.00 0.00 0.00 39 1022.4
20210805082017 72 332 2.0 4.0 0.00 0.00 0.00 39 1022.4
20210805081017 72 331 2.0 3.0 0.00 0.00 0.00 39 1022.5
20210805080017 73 344 2.0 3.0 0.00 0.00 0.00 38 1022.6
20210805075017 73 347 3.0 4.0 0.00 0.00 0.00 37 1022.9
20210805074017 74 348 4.0 5.0 0.00 0.00 0.00 37 1022.9
20210805073017 73 335 5.0 6.0 0.00 0.00 0.00 38 1022.8
20210805072017 74 340 4.0 8.0 0.00 0.00 0.00 37 1022.6
20210805071017 74 352 5.0 6.0 0.00 0.00 0.00 37 1022.9
20210805070018 73 340 3.0 5.0 0.00 0.00 0.00 36 1023.0
20210805065017 74 335 2.0 4.0 0.00 0.00 0.00 36 1022.6
20210805064017 74 343 3.0 5.0 0.00 0.00 0.00 36 1022.6
20210805063017 74 350 4.0 5.0 0.00 0.00 0.00 35 1022.6
20210805062016 74 290 1.0 2.0 0.00 0.00 0.00 36 1022.7
20210805061017 74 290 2.0 3.0 0.00 0.00 0.00 35 1022.6
20210805060017 74 338 4.0 5.0 0.00 0.00 0.00 35 1022.7
20210805055016 75 305 1.0 2.0 0.00 0.00 0.00 34 1022.7
20210805054016 76 306 1.0 2.0 0.00 0.00 0.00 33 1023.0
20210805053016 77 304 1.0 3.0 0.00 0.00 0.00 33 1023.1
20210805052017 77 9 3.0 5.0 0.00 0.00 0.00 32 1023.0
20210805051016 77 338 2.0 3.0 0.00 0.00 0.00 32 1022.7
20210805050016 77 327 3.0 4.0 0.00 0.00 0.00 32 1022.5
20210805045016 76 353 4.0 5.0 0.00 0.00 0.00 32 1022.4
20210805044016 76 0 1.0 2.0 0.00 0.00 0.00 32 1022.2
20210805043016 78 0 1.0 2.0 0.00 0.00 0.00 31 1022.4
20210805042016 79 347 4.0 5.0 0.00 0.00 0.00 29 1022.3
20210805041016 80 55 2.0 3.0 0.00 0.00 0.00 29 1022.6
20210805040016 82 342 2.0 4.0 0.00 0.00 0.00 27 1022.6
20210805035017 82 329 4.0 6.0 0.00 0.00 0.00 27 1022.6
20210805034016 81 325 5.0 8.0 0.00 0.00 0.00 28 1022.5
20210805033016 83 330 9.0 12.0 0.00 0.00 0.00 26 1022.4
20210805032016 84 320 4.0 9.0 0.00 0.00 0.00 26 1022.3
20210805031016 84 3 5.0 8.0 0.00 0.00 0.00 25 1022.6
20210805030016 84 339 4.0 6.0 0.00 0.00 0.00 25 1022.8
20210805025017 85 1 3.0 5.0 0.00 0.00 0.00 24 1022.5
20210805024016 85 333 8.0 12.0 0.00 0.00 0.00 23 1022.7
20210805023016 85 330 6.0 8.0 0.00 0.00 0.00 23 1022.5
20210805022016 85 6 8.0 9.0 0.00 0.00 0.00 23 1022.4
20210805021016 86 335 8.0 10.0 0.00 0.00 0.00 23 1022.4
20210805020016 87 310 6.0 9.0 0.00 0.00 0.00 22 1022.4
20210805015015 88 322 6.0 8.0 0.00 0.00 0.00 22 1022.5
20210805014016 88 311 1.0 5.0 0.00 0.00 0.00 21 1022.3
20210805013016 88 53 6.0 10.0 0.00 0.00 0.00 21 1022.3
20210805012018 88 14 7.0 11.0 0.00 0.00 0.00 21 1022.3
20210805011017 89 55 5.0 8.0 0.00 0.00 0.00 20 1022.3
20210805010021 89 52 7.0 10.0 0.00 0.00 0.00 20 1022.1
20210805005017 89 6 8.0 11.0 0.00 0.00 0.00 21 1022.2
20210805004017 89 16 4.0 7.0 0.00 0.00 0.00 20 1022.1
20210805003017 89 28 8.0 11.0 0.00 0.00 0.00 19 1022.4
20210805002017 89 20 6.0 10.0 0.00 0.00 0.00 19 1022.6
20210805001017 90 346 9.0 14.0 0.00 0.00 0.00 19 1022.7
20210805000017 90 5 9.0 12.0 0.00 0.00 0.00 20 1023.3
20210804235017 90 16 8.0 13.0 0.00 0.00 0.00 18 1022.9
20210804234018 90 9 10.0 16.0 0.00 0.00 0.00 19 1023.2
20210804233018 90 8 12.0 18.0 0.00 0.00 0.00 18 1023.1
20210804232018 89 53 12.0 16.0 0.00 0.00 0.00 17 1023.1
20210804231017 90 10 11.0 15.0 0.00 0.00 0.00 19 1023.3
20210804230017 90 26 6.0 10.0 0.00 0.00 0.00 18 1023.3
20210804225017 90 51 12.0 15.0 0.00 0.00 0.00 18 1023.4
20210804224017 90 50 7.0 12.0 0.00 0.00 0.00 18 1023.7
20210804223017 89 46 14.0 18.0 0.00 0.00 0.00 17 1023.7
20210804222017 89 37 9.0 16.0 0.00 0.00 0.00 19 1023.9
20210804221017 89 58 12.0 19.0 0.00 0.00 0.00 20 1024.0
20210804220017 89 58 11.0 17.0 0.00 0.00 0.00 19 1024.1
20210804215018 89 96 9.0 12.0 0.00 0.00 0.00 21 1024.6
20210804214017 89 92 11.0 15.0 0.00 0.00 0.00 20 1024.8
20210804213017 88 124 7.0 11.0 0.00 0.00 0.00 21 1025.3
20210804212018 88 116 7.0 12.0 0.00 0.00 0.00 22 1025.5
20210804211017 87 74 5.0 11.0 0.00 0.00 0.00 23 1025.0
20210804210017 87 110 7.0 9.0 0.00 0.00 0.00 24 1025.2